Weather History for Howell, MI

Change the Weather History Date:

Tuesday, February 19, 2013

  Actual Average Record
Temperature  
Mean Temperature 31 °F -  
Max Temperature 44 °F 35 °F 51 °F (1997)
Min Temperature 17 °F 20 °F 6 °F (2006)
Degree Days  
Heating Degree Days 34    
Moisture  
Dew Point 22 °F    
Average Humidity 77    
Maximum Humidity 89    
Minimum Humidity 65    
Precipitation  
Precipitation 0.00 in - - ()
Sea Level Pressure  
Sea Level Pressure 29.62 in    
Wind  
Wind Speed 18 mph (WSW)    
Max Wind Speed 25 mph    
Max Gust Speed 38 mph    
Visibility 7 miles    
Events Rain , Snow    
Averages and records for this station are not official NWS values.
T = Trace of Precipitation, MM = Missing Value Source: NWS Daily Summary

Daily Weather History Graph

Daily Weather History Graph

Search for Another Location

Airport:

Trip Planner

Search our weather history database for the weather conditions in past years. The results will help you decide how hot, cold, wet, or windy it might be!

Date:

Astronomy

Feb. 19, 2013 Rise Set
Actual Time 7:26 AM EST 6:13 PM EST
Civil Twilight 6:58 AM EST 6:42 PM EST
Nautical Twilight 6:25 AM EST 7:14 PM EST
Astronomical Twilight 5:52 AM EST 7:47 PM EST
Moon 12:40 PM EST (2/19) 3:01 AM EST (2/19)
Length of Visible Light 11h 44m
Length of Day
10h 46m
Waxing Gibbous, 67% of the Moon is Illuminated
Feb 19
Waxing Gibbous
Feb 25
Full
Mar 4
Last Quarter
Mar 11
New
Mar 19
First Quarter

Hourly Weather History & Observations

Time (EST) Temp. Windchill Dew Point Humidity Pressure Visibility Wind Dir Wind Speed Gust Speed Precip Events Conditions
12:15 AM 44.2 °F 37.0 °F 36.5 °F 74% 29.55 in 10.0 mi South 16.1 mph 24.2 mph N/A Rain Rain
12:34 AM 43.9 °F 37.2 °F 37.4 °F 78% 29.52 in 7.0 mi South 13.8 mph 27.6 mph N/A Rain Light Rain
12:54 AM 43.7 °F 35.2 °F 37.6 °F 79% 29.52 in 7.0 mi South 20.7 mph 27.6 mph N/A Rain Light Rain
1:14 AM 43.2 °F 35.6 °F 37.6 °F 81% 29.50 in 10.0 mi South 16.1 mph 23.0 mph N/A   Drizzle
1:34 AM 43.3 °F 35.2 °F 38.1 °F 82% 29.48 in 7.0 mi South 18.4 mph 29.9 mph N/A   Drizzle
1:55 AM 43.3 °F 35.5 °F 38.3 °F 82% 29.46 in 7.0 mi South 17.3 mph 24.2 mph N/A Rain Rain
2:14 AM 42.8 °F 34.8 °F 38.3 °F 84% 29.45 in 7.0 mi South 17.3 mph 24.2 mph N/A Rain Light Rain
2:34 AM 43.0 °F 34.5 °F 38.3 °F 84% 29.43 in 7.0 mi South 19.6 mph 29.9 mph N/A Rain Rain
2:55 AM 42.8 °F 34.8 °F 38.3 °F 84% 29.42 in 7.0 mi South 17.3 mph 28.8 mph N/A Rain Light Rain
3:14 AM 42.6 °F 34.6 °F 37.9 °F 83% 29.40 in 7.0 mi South 17.3 mph 31.1 mph N/A Rain Light Rain
3:34 AM 42.4 °F 34.1 °F 37.8 °F 83% 29.39 in 10.0 mi South 18.4 mph 25.3 mph N/A Rain Light Rain
3:54 AM 42.4 °F 35.0 °F 38.3 °F 85% 29.38 in 7.0 mi South 15.0 mph 25.3 mph N/A Rain Light Rain
4:14 AM 42.6 °F 34.9 °F 38.3 °F 85% 29.37 in 10.0 mi South 16.1 mph 23.0 mph N/A Rain Light Rain
4:35 AM 40.1 °F 29.5 °F 35.1 °F 82% 29.41 in 5.0 mi West 25.3 mph 38.0 mph N/A Rain Light Rain
4:54 AM 36.7 °F 25.7 °F 32.9 °F 86% 29.42 in 7.0 mi WSW 21.9 mph 28.8 mph N/A Rain Light Rain
5:14 AM 35.8 °F 25.7 °F 32.0 °F 86% 29.44 in 10.0 mi WSW 17.3 mph 25.3 mph N/A Rain Light Rain
5:35 AM 35.4 °F 24.3 °F 32.0 °F 87% 29.45 in 7.0 mi West 20.7 mph 29.9 mph N/A   Light Drizzle
5:54 AM 35.2 °F 25.0 °F 32.0 °F 88% 29.45 in 7.0 mi West 17.3 mph 21.9 mph N/A   Overcast
6:15 AM 34.7 °F 23.1 °F 31.3 °F 87% 29.46 in 7.0 mi West 21.9 mph 32.2 mph N/A   Overcast
6:34 AM 34.0 °F 21.8 °F 30.7 °F 88% 29.48 in 7.0 mi WSW 23.0 mph 28.8 mph N/A   Overcast
6:54 AM 33.3 °F 24.1 °F 30.2 °F 89% 29.49 in 7.0 mi WSW 12.7 mph 26.5 mph N/A   Overcast
7:14 AM 32.9 °F 22.4 °F 30.0 °F 89% 29.50 in 7.0 mi WSW 16.1 mph 24.2 mph N/A   Overcast
7:34 AM 32.0 °F 20.5 °F 28.4 °F 87% 29.51 in 10.0 mi WSW 18.4 mph 28.8 mph N/A   Overcast
7:55 AM 31.5 °F 18.8 °F 27.3 °F 85% 29.52 in 10.0 mi WSW 21.9 mph 28.8 mph N/A   Overcast
8:14 AM 30.4 °F 18.7 °F 26.4 °F 85% 29.53 in 10.0 mi WSW 17.3 mph 26.5 mph N/A   Overcast
8:34 AM 29.3 °F 16.2 °F 25.3 °F 85% 29.55 in 7.0 mi WSW 20.7 mph 31.1 mph N/A   Overcast
9:14 AM 28.6 °F 16.8 °F 24.8 °F 86% 29.56 in 4.0 mi WSW 16.1 mph 27.6 mph N/A Snow Light Snow
9:35 AM 27.7 °F 14.1 °F 23.9 °F 86% 29.57 in 5.0 mi SW 20.7 mph 27.6 mph N/A   Overcast
9:54 AM 27.3 °F 16.1 °F 23.4 °F 85% 29.58 in 2.5 mi WSW 13.8 mph 26.5 mph N/A   Overcast
10:14 AM 26.8 °F 14.1 °F 22.6 °F 84% 29.59 in 3.0 mi WSW 17.3 mph 28.8 mph N/A Snow Light Snow
10:34 AM 25.9 °F 12.1 °F 20.5 °F 80% 29.59 in 2.5 mi WSW 19.6 mph 29.9 mph N/A Snow Light Snow
10:54 AM 25.5 °F 10.9 °F 19.4 °F 78% 29.60 in 3.0 mi WSW 21.9 mph 28.8 mph N/A Snow Light Snow
11:15 AM 25.7 °F 10.5 °F 18.0 °F 73% 29.60 in 10.0 mi WSW 24.2 mph 33.4 mph N/A Snow Light Snow
11:34 AM 25.5 °F 10.9 °F 16.7 °F 69% 29.61 in 7.0 mi WSW 21.9 mph 36.8 mph N/A Snow Light Snow
11:54 AM 24.8 °F 11.1 °F 16.0 °F 69% 29.62 in 5.0 mi WSW 18.4 mph 29.9 mph N/A Snow Light Snow
12:15 PM 25.0 °F 10.6 °F 15.8 °F 68% 29.62 in 10.0 mi WSW 20.7 mph 28.8 mph N/A Snow Light Snow
12:34 PM 24.4 °F 9.5 °F 16.2 °F 71% 29.63 in 3.0 mi WSW 21.9 mph 28.8 mph N/A Snow Light Snow
12:54 PM 23.9 °F 8.1 °F 16.2 °F 72% 29.63 in 2.0 mi WSW 24.2 mph 31.1 mph N/A Snow Light Snow
1:15 PM 23.7 °F 8.2 °F 15.8 °F 72% 29.63 in 4.0 mi WSW 23.0 mph 34.5 mph N/A Snow Light Snow
1:34 PM 23.7 °F 8.9 °F 16.2 °F 73% 29.63 in 1.8 mi WSW 20.7 mph 28.8 mph N/A Snow Light Snow
1:54 PM 23.7 °F 11.0 °F 18.0 °F 79% 29.63 in 1.2 mi SW 15.0 mph 24.2 mph N/A Snow Light Snow
2:15 PM 23.7 °F 9.7 °F 17.8 °F 78% 29.64 in 0.5 mi WSW 18.4 mph 31.1 mph N/A Snow Light Snow
2:34 PM 23.9 °F 9.1 °F 14.7 °F 68% 29.65 in 10.0 mi WSW 20.7 mph 33.4 mph N/A Snow Light Snow
2:54 PM 24.4 °F 9.5 °F 14.4 °F 66% 29.66 in 10.0 mi WSW 21.9 mph 29.9 mph N/A   Overcast
3:14 PM 24.3 °F 8.3 °F 14.4 °F 66% 29.66 in 7.0 mi WSW 25.3 mph 31.1 mph N/A Snow Light Snow
3:34 PM 24.1 °F 9.8 °F 13.8 °F 65% 29.68 in 7.0 mi WSW 19.6 mph 29.9 mph N/A Snow Light Snow
3:55 PM 24.1 °F 9.4 °F 13.8 °F 65% 29.69 in 10.0 mi West 20.7 mph 27.6 mph N/A Snow Light Snow
4:14 PM 23.7 °F 8.5 °F 13.8 °F 66% 29.70 in 5.0 mi WSW 21.9 mph 31.1 mph N/A Snow Light Snow
4:34 PM 23.4 °F 7.7 °F 14.9 °F 70% 29.71 in 1.2 mi West 23.0 mph 31.1 mph N/A Snow Light Snow
4:55 PM 22.1 °F 7.6 °F 16.2 °F 78% 29.73 in 0.5 mi WSW 18.4 mph 27.6 mph N/A Snow Light Snow
5:14 PM 21.9 °F 6.9 °F 16.7 °F 80% 29.74 in 0.5 mi West 19.6 mph 26.5 mph N/A Snow Light Snow
5:31 PM 21.4 °F 5.1 °F 15.6 °F 78% 29.75 in 1.0 mi West 23.0 mph 31.1 mph N/A Snow Light Snow
5:54 PM 21.2 °F 6.4 °F 14.9 °F 77% 29.76 in 4.0 mi West 18.4 mph 25.3 mph N/A Snow Light Snow
6:15 PM 21.2 °F 6.4 °F 14.0 °F 74% 29.78 in 5.0 mi West 18.4 mph 25.3 mph N/A Snow Light Snow
7:34 PM 19.4 °F 3.6 °F 10.8 °F 69% 29.84 in 5.0 mi West 19.6 mph 26.5 mph N/A Snow Light Snow
8:34 PM 19.2 °F 5.8 °F 9.9 °F 67% 29.86 in 10.0 mi West 13.8 mph 29.9 mph N/A   Overcast
8:55 PM 18.7 °F 3.6 °F 10.9 °F 72% 29.86 in 7.0 mi West 17.3 mph 23.0 mph N/A Snow Light Snow
9:14 PM 18.7 °F 3.1 °F 10.2 °F 70% 29.86 in 7.0 mi West 18.4 mph 27.6 mph N/A Snow Light Snow
9:35 PM 18.3 °F 2.2 °F 9.0 °F 67% 29.87 in 10.0 mi West 19.6 mph 26.5 mph N/A   Overcast
9:54 PM 18.3 °F 4.1 °F 8.6 °F 66% 29.88 in 10.0 mi West 15.0 mph 21.9 mph N/A   Overcast
10:14 PM 18.3 °F 2.6 °F 9.5 °F 68% 29.88 in 10.0 mi West 18.4 mph 26.5 mph N/A   Overcast
10:35 PM 18.1 °F 0.8 °F 9.3 °F 68% 29.88 in 10.0 mi West 23.0 mph 28.8 mph N/A   Overcast
10:54 PM 18.0 °F 2.2 °F 8.6 °F 67% 29.88 in 10.0 mi West 18.4 mph 26.5 mph N/A   Mostly Cloudy
11:14 PM 18.0 °F 1.3 °F 9.1 °F 68% 29.89 in 10.0 mi West 20.7 mph 25.3 mph N/A   Mostly Cloudy
11:35 PM 18.0 °F 3.6 °F 9.3 °F 69% 29.89 in 10.0 mi West 15.0 mph 25.3 mph N/A   Overcast
11:54 PM 17.6 °F 3.2 °F 9.5 °F 71% 29.89 in 10.0 mi West 15.0 mph - N/A   Mostly Cloudy